Погода в Пасу-Фунду

Бразилия     28°15′37″S   52°24′40″W
темп.,
°C
ветер,
м/с
пор.,
м/с
влажн.,
%
обл.,
%
осадки,
мм/ч
давл.,
гПа
погр.,
м
26 февраля, пт
пт2600:00+17в411910 0.0 1014262
03:00+17всв411930 0.0 1013313
06:00+16всв512860 0.0 1014392
09:00+20всв610800 0.0 1015543
12:00+24всв57710 0.0 1014812
15:00+27всв45650 0.0 10121256
18:00+24вюв36790 0.4 1011235
21:00+19юв413690 0.4 1014356
27 февраля, сб
сб2700:00+19всв513830 0.0 1015459
03:00+18св613850 0.0 1015453
06:00+16всв412910 0.0 1017348
09:00+20всв611780 0.0 1018600
12:00+25в57700 0.0 1017979
15:00+27вюв35610 0.0 10141650
18:00+23вюв5118026 0.6 1014513
21:00+19в6148513 0.7 1016484
28 февраля, вс
вс2800:00+17в514820 0.0 1017484
03:00+15в38900 0.0 1016203
06:00+14в48950 0.0 1017182
09:00+20в59770 0.0 1016638
12:00+25в58670 0.0 10151210
15:00+25вюв56782 1.5 1012951
18:00+24юв49850 1.6 1011660
21:00+19вюв513900 1.6 1013354
1 марта, пн
пн100:00+17в411940 0.0 1013329
03:00+17в411960 0.0 1012351
06:00+17всв48960 0.0 1012220
09:00+22св47850 0.0 1012460
12:00+25с347538 0.4 1011848
15:00+26юз227345 2.6 1009909
18:00+23юв479134 1.4 1008413
21:00+20вюв349517 1.4 101076
2 марта, вт
вт200:00+18в33940 0.0 101170
03:00+17всв36960 0.0 1010121
06:00+17св36960 0.0 1011123
09:00+23ссз36870 0.0 1012458
12:00+26з34781 3.0 1011855
15:00+27юз12708 5.9 10091034
18:00+25юв358313 1.8 1008257
21:00+20вюв34929 2.7 101182